Flag for Ireland Weather past 2 weeks in Cork, Ireland

Now
60 °F

Light rain. Low clouds.


Feels Like: 60 °F
Forecast: 54 / 66 °F
Wind: 5 mph from Southwest

Location: Cork Airport

Current Time: Jul 31, 2014 at 10:42:15 AM

Latest Report: Jul 31, 2014 at 10:00 AM


Visibility: 9 mi

Pressure: 29.94 "Hg

Humidity: 95%

Dew point: 58 °F

Location of CorkLocation

Historic Weather in Cork — Graph

°F

Cork temperature yesterday

Maximum temperature yesterday: 71 °F (at 3:00 PM)
Minimum temperature yesterday: 54 °F (at 6:00 AM)
Average temperature yesterday: 62 °F

Past Weeks' High & Low Weather Summary

 TemperatureHumidityPressure
High75 °F (Jul 25, 3:00 PM)100% (Jul 22, 5:00 AM)30.23 "Hg (Jul 22, 5:00 AM)
Low52 °F (Jul 17, 2:00 AM)48% (Jul 27, 4:00 PM)29.75 "Hg (Jul 19, 5:00 AM)
Average63 °F84%30.05 "Hg
* Reported Jul 16 9:00 AM — Jul 31 9:00 AM, Cork, Weather by CustomWeather, © 2014

Note: Actual official high and low records may vary slightly from our data, if they occured in-between our weather recording intervals... More about our weather records

Advertising

Cork weather history for previous 24 hours

 ConditionsComfort  
Time TempWeatherWind HumidityBarometerVisibility
9:00 AM
Jul 31
60 °FOvercast.5 mph93%29.95 "Hg11 mi
8:00 AM59 °FOvercast.3 mph95%29.95 "Hg11 mi
7:00 AM59 °FOvercast.3 mph96%29.96 "Hg11 mi
6:00 AM58 °FOvercast.3 mph95%29.96 "Hg12 mi
5:00 AM58 °FOvercast.3 mph94%29.97 "Hg19 mi
4:00 AM60 °FPassing clouds.3 mph96%29.97 "Hg16 mi
3:00 AM60 °FLow clouds.3 mph97%29.98 "Hg19 mi
2:00 AM60 °FPassing clouds.5 mph98%29.99 "Hg19 mi
1:00 AM58 °FFog.5 mph96%30.00 "Hg7 mi
12:00 AM60 °FLow clouds.6 mph96%30.01 "Hg12 mi
11:00 PM
Jul 30
59 °FPassing clouds.5 mph95%30.02 "Hg12 mi
10:00 PM60 °FOvercast.5 mph92%30.03 "Hg22 mi
9:00 PM62 °FOvercast.6 mph86%30.03 "Hg22 mi
8:00 PM65 °FPartly sunny.8 mph79%30.02 "Hg22 mi
7:00 PM66 °FOvercast.8 mph73%30.02 "Hg25 mi
6:00 PM68 °FPartly sunny.6 mph65%30.01 "Hg31 mi
5:00 PM71 °FPartly sunny.7 mph59%30.02 "Hg31 mi
4:00 PM71 °FScattered clouds.5 mph57%30.03 "Hg37 mi
3:00 PM71 °FScattered clouds.7 mph56%30.03 "Hg37 mi
2:00 PM70 °FScattered clouds.6 mph57%30.05 "Hg37 mi
1:00 PM68 °FPartly sunny.6 mph63%30.06 "Hg37 mi
12:00 PM66 °FScattered clouds.5 mph64%30.08 "Hg37 mi
11:00 AM64 °FScattered clouds.5 mph69%30.09 "Hg31 mi
10:00 AM62 °FPassing clouds.6 mph70%30.10 "Hg31 mi
Weather by CustomWeather, © 2014

See weather overviewHow to use our weather pages